Location: Banff
(51.1667°N, 115.5667°W)
Time: 07:55:55
(UTC+00:00)

Vanguard 1 - Pass Details

Date: 27 November 2020
Orbit: 648 x 3834 km, 34.3° (Epoch: 22 January)

Event Time Altitude Azimuth Distance (km) Brightness Sun altitude
Rises 14:29:04 0° 236° (SW) 3,895 12.8 -7.7°
Reaches altitude 10° 14:31:40 10° 225° (SW) 3,238 12.5 -7.3°
Maximum altitude 14:38:44 31° 167° (SSE) 2,784 12.9 -6.3°
Drops below altitude 10° 14:50:12 10° 114° (ESE) 5,352 15.7 -4.7°
Sets 14:56:06 0° 106° (ESE) 6,902 16.4 -3.9°
